Find Starlink 4653

NORAD ID: 53615 Int'l Des: 2022-104 Owner: SPXS Country: US Constellation: starlink decayed
LEOCIRCULAR
Vis

Historical Track — Sep 14, 2022

正在加载3D地球...

关于 Starlink 4653

正在加载描述...

高度历史

Loading altitude history...

两行轨道根数

1 53615U 22104AD 22256.86116362 .15877752 12045-4 22984-2 0 9994
2 53615 53.2076 202.6081 0018184 112.8601 276.6062 16.33314633 2706
Epoch: Sep 13, 2022 • Age: 31555 hours

当前状态

Position data unavailable
发射日期 Aug 28, 2022
运行时间 3.6 years
衰减日期 Sep 14, 2022
类型 internet

技术详情

分类 Payload
质量 300.00 kg
干质量 290.00 kg
总质量 300.00 kg
长度 0.20 m
直径 2.80 m
跨度 9.00 m
形状 Box + pan
制造商 SPXS
平台类型 Starlink
阶段状态 Reentered
所有者/国家 SPXS/US

Most Searched